This is the latest recevied weather packets stored in our database for station/object KC8BSD. If no packets are shown the sender has not sent any weather packets the latest 10 day(s).
| Time | Temp. | Humidity | Pressure | Rain* | Wind** | Luminosity | Snow |
|---|---|---|---|---|---|---|---|
| 1777549665 | 5° C | 96% | 1016.4 hPa | 0 mm | - | 52 W/m² | - |
| 1777549360 | 5° C | 96% | 1016.1 hPa | 0 mm | - | 51 W/m² | - |
| 1777549058 | 5° C | 96% | 1016.2 hPa | 0 mm | - | 51 W/m² | - |
| 1777548754 | 5° C | 96% | 1016.1 hPa | 0 mm | - | 60 W/m² | - |
| 1777548451 | 5° C | 97% | 1016.3 hPa | 0 mm | - | 50 W/m² | - |
| 1777548147 | 4.44° C | 97% | 1016.1 hPa | 0 mm | - | 56 W/m² | - |
| 1777547844 | 4.44° C | 97% | 1016.3 hPa | 0 mm | - | 37 W/m² | - |
| 1777547540 | 4.44° C | 97% | 1016.2 hPa | 0 mm | - | 23 W/m² | - |
| 1777547238 | 4.44° C | 97% | 1016.3 hPa | 0 mm | - | 19 W/m² | - |
| 1777546935 | 4.44° C | 97% | 1016.2 hPa | 0 mm | - | 14 W/m² | - |
| 1777546632 | 4.44° C | 97% | 1015.9 hPa | 0 mm | - | 10 W/m² | - |
| 1777546328 | 4.44° C | 97% | 1015.9 hPa | 0 mm | - | 8 W/m² | - |
| 1777546026 | 4.44° C | 97% | 1015.9 hPa | 0 mm | - | 4 W/m² | - |
| 1777545721 | 4.44° C | 97% | 1016 hPa | 0 mm | - | 2 W/m² | - |
| 1777545419 | 4.44° C | 97% | 1016 hPa | 0 mm | - | 1 W/m² | - |
| 1777545115 | 4.44° C | 97% | 1016.1 hPa | 0 mm | - | 0 W/m² | - |
| 1777544813 | 4.44° C | 97% | 1015.9 hPa | 0 mm | - | 0 W/m² | - |
| 1777544509 | 4.44° C | 97% | 1015.9 hPa | 0 mm | - | 0 W/m² | - |
| 1777544205 | 4.44° C | 97% | 1015.9 hPa | 0 mm | - | 0 W/m² | - |
| 1777543903 | 4.44° C | 97% | 1015.9 hPa | 0 mm | - | 0 W/m² | - |
| 1777543599 | 4.44° C | 97% | 1015.8 hPa | 0 mm | - | 0 W/m² | - |
| 1777543295 | 4.44° C | 97% | 1015.8 hPa | 0 mm | - | 0 W/m² | - |
| 1777542991 | 4.44° C | 97% | 1015.9 hPa | 0 mm | - | 0 W/m² | - |
| 1777542687 | 4.44° C | 97% | 1015.9 hPa | 0 mm | - | 0 W/m² | - |
| 1777542384 | 4.44° C | 97% | 1016 hPa | 0 mm | - | 0 W/m² | - |
* Rain latest hour (hover to see other rain measurements)
** Current wind speed in m/s (hover to see current wind gust speed)